Regional Weather Roundup
Issued by NWS Sterling, VA

Home | Current Version | Previous Version | Graphics & Text | Print | Product List | Glossary On
Versions: 1 2 3 4 5 6 7 8 9 10 11 12 13 14 15 16 17 18 19 20 21 22 23 24 25 26 27 28 29 30 31 32 33 34 35 36 37 38 39 40 41 42 43 44 45 46 47 48 49 50
000
ASUS41 KLWX 211010
RWRLWX

REGIONAL WEATHER ROUNDUP
NATIONAL WEATHER SERVICE BALTIMORE MD/WASHINGTON DC
600 AM EDT TUE OCT 21 2014

Note: "FAIR" indicates few or no clouds below 12,000 feet
with no significant weather and/or obstructions to visibility.
 TC=TEMPERATURE CELSIUS

 * =Non NWS site. Station does not report precipitation (e.g. rain,
    snow, etc.), thunder, or fog.

DCZ001-MDZ009-015-VAZ040>042-051-053>054-211100-
WASHINGTON METRO

CITY           SKY/WX    TMP DP  RH WIND       PRES   REMARKS
WASHINGTON NAT PTCLDY    56  48  74 SW3       29.87F
DULLES         PTCLDY    48  46  93 CALM      29.86S
ANDREWS AFB    CLEAR     52  47  83 S5        29.86F
FT BELVOIR     FOG       48  46  93 CALM      29.87S VSB 3/4
QUANTICO       MOCLDY    55  47  74 S5        29.87F
COLLEGE PARK*    N/A     48  48 100 CALM      29.86F VSB 1/2
LEESBURG*      PTCLDY    50  50 100 MISG      29.87S
MANASSAS*      MOCLDY    46  46 100 CALM      29.87S
GAITHERSBURG*  PTCLDY    48  45  87 CALM      29.90S

$$

MDZ006>007-011-014-211100-
BALTIMORE METRO

CITY           SKY/WX    TMP DP  RH WIND       PRES   REMARKS
BWI AIRPORT    PTCLDY    49  48  97 CALM      29.86S
MD SCIENCE CTR   N/A     54  48  80 MISG      29.86S
MARTIN STATE   PTCLDY    52  52 100 CALM      29.88S
ANNAPOLIS      CLOUDY    57  48  72 W3        29.85F
FORT MEADE*    CLEAR     45  43  93 CALM      29.88F

$$

MDZ012-015-019>023-211100-
MARYLAND EASTERN SHORE

CITY           SKY/WX    TMP DP  RH WIND       PRES   REMARKS
OCEAN CITY     CLOUDY    55  53  93 CALM      29.88F
SALISBURY      CLOUDY    54  50  86 E3        29.88F
CAMBRIDGE*     PTCLDY    55  52  88 CALM      29.86F
EASTON*        PTCLDY    55  52  89 CALM      29.90S

$$

MDZ017>025-211100-
SOUTHERN MARYLAND

CITY           SKY/WX    TMP DP  RH WIND       PRES   REMARKS
PATUXENT RIVER MOCLDY    57  48  72 SW7       29.86F
ST INIGOES     PTCLDY    60  49  66 SW8       29.86F
LEONARDTOWN*   PTCLDY    55  46  71 CALM      29.88S

$$

MDZ003>005-211100-
NORTH CENTRAL MARYLAND

CITY           SKY/WX    TMP DP  RH WIND       PRES   REMARKS
FREDERICK*       N/A     52  46  82 SE3       29.89S FOG
HAGERSTOWN APT CLOUDY    50  47  89 S3        29.85S
WESTMINSTER*   PTCLDY    50  48  93 CALM      29.85S

$$

MDZ501>502-211100-
WESTERN MARYLAND

CITY           SKY/WX    TMP DP  RH WIND       PRES   REMARKS
OAKLAND*       CLOUDY    45 N/A N/A W8G17     29.86S HAZE
CUMBERLAND*    CLOUDY    46  46 100 CALM      29.90S

$$

VAZ025>031-211100-
SHENANDOAH VALLEY

CITY           SKY/WX    TMP DP  RH WIND       PRES   REMARKS
WINCHESTER*    PTCLDY    52  45  76 W7        29.85F
FRONT ROYAL*   FAIR      46  45  93 CALM      29.85S
LURAY*         PTSUNNY   52  50  93 CALM      29.86F
NEW MARKET*    FAIR      43  42  97 CALM      29.87F
STAUNTON*      PTCLDY    46  42  89 SE3       29.90F
WAYNESBORO*    FAIR      47  43  86 CALM      29.88S

$$

WVZ021-048>050-054>055-211100-
EASTERN WEST VIRGINIA PANHANDLE

CITY           SKY/WX    TMP DP  RH WIND       PRES   REMARKS
MARTINSBURG    FOG       47  44  90 W3        29.86S VSB 1
PETERSBURG*    CLOUDY   N/A N/A N/A CALM      29.88S

$$

VAZ036>039-050-211100-
CENTRAL FOOTHILLS

CITY           SKY/WX    TMP DP  RH WIND       PRES   REMARKS
CHARLOTTESVILL CLEAR     52  47  83 CALM      29.87S
CULPEPER*      PTCLDY    46  45  93 CALM      29.87F
ORANGE*        PTCLDY    50  46  87 CALM      29.89S
GORDONSVILLE*  FAIR      48  47  97 CALM      29.87S
WARRENTON*     FAIR      46  46 100 CALM      29.86F

$$

VAZ055>057-211100-
NORTH AND CENTRAL PIEDMONT

CITY           SKY/WX    TMP DP  RH WIND       PRES   REMARKS
FREDERICKSBRG* MOCLDY    54  50  86 CALM      29.86F
STAFFORD*      CLOUDY    48  48 100 CALM      29.90F

$$

NCZ024-NYZ072-PAZ021-071-VAZ022-071-211100-
OTHER REGIONAL OBSERVATIONS

CITY           SKY/WX    TMP DP  RH WIND       PRES   REMARKS
NEW YORK CITY  CLOUDY    56  45  66 CALM      29.92S
PHILADELPHIA   CLOUDY    53  48  83 CALM      29.87F
PITTSBURGH     CLOUDY    50  49  96 SW6       29.85R
ROANOKE        PTCLDY    52  45  77 W6        29.94R
RICHMOND       MOCLDY    55  47  74 S3        29.88S
RALEIGH        PTCLDY    53  49  86 CALM      29.92S

$$

ANZ530>537-211100-
MARINE OBSERVATIONS

STATION/POSITION TIME  TEMP    WIND        PRES
                       AIR SEA DIR/SP/G
                 (UTC) (F)     (DEG/KT/KT) (MB)
THOMAS PT LIGHT  1000   58 64  240/  7/  9 1012.2F
BALT KEY BRIDGE  1000   56     240/  3/  4 1011.0S
COVE POINT       1000   60     230/ 12/ 12 1010.9S
LEWISETTA        1000   59 63  230/  5/  6 1010.9F
SOLOMONS ISLAND  1000      65                N/A
PINEY POINT      1000          240/  7/ 12   N/A

$$



USA.gov is the U.S. government's official web portal to all federal, state and local government web resources and services.